[[{"header":{"parameterUnit":"m.s-1","parameterCategory":1,"la1":30.2991,"la2":30.254,"lo1":-89.0895,"lo2":-89.0444,"dy":0.0017,"dx":0.0017,"nx":28,"ny":28,"refTime":"2024-12-15T09:00:00:Z","depth":0,"parameterNumber":2,"parameterNumberName":"U-component_of_WINDS"},"data":[0,0,0,0,0,0,0,0,0,0,0,0,0,0,0,0,0,0,0,0,0,0,0,0,0,0,0,0,0,0,0,0,0,0,0,0,0,0,0,0,0,0,0,0,0,0,0,0,0,0,0,0,0,0,0,0,0,0,-4.298,-4.2979,0,-4.2936,-4.2936,-4.2935,-4.28,-4.2797,-4.2794,-4.2792,-4.275,-4.2751,-4.2753,0,0,0,0,0,0,0,0,0,0,0,0,0,-4.2951,-4.2952,-4.298,-4.2979,-4.2979,-4.2936,-4.2936,-4.2935,-4.2801,-4.2797,-4.2794,-4.279,-4.2749,-4.2751,-4.2753,0,0,0,0,0,0,0,0,0,0,0,0,0,-4.2941,-4.2953,-4.298,-4.2907,-4.29,-4.2936,-4.2936,-4.2935,-4.2802,-4.2797,-4.2793,-4.2788,-4.2749,-4.2751,-4.2754,-4.2859,0,0,-4.2761,-4.2762,0,0,0,0,0,0,0,0,-4.2942,-4.2943,-4.2918,-4.2912,-4.2904,-4.2869,-4.291,-4.291,-4.2803,-4.2839,-4.2791,-4.2786,-4.2793,-4.2792,-4.2794,-4.2857,-4.2855,-4.2761,-4.2763,-4.2764,-4.2765,0,0,0,0,0,0,0,-4.2943,-4.2944,-4.2963,-4.2918,-4.2909,-4.2877,-4.2871,-4.2909,-4.2842,-4.2835,-4.2826,-4.2822,-4.2789,-4.2792,-4.2792,-4.2854,-4.2761,-4.2764,-4.2765,-4.2766,-4.3004,-4.3009,0,0,0,0,0,0,-4.2954,-4.2945,-4.2964,-4.2961,-4.2912,-4.2881,-4.2874,-4.2885,-4.2841,-4.283,-4.2826,-4.2816,-4.2789,-4.2789,-4.279,-4.2911,-4.2764,-4.2766,-4.2768,-4.2999,-4.3005,-4.301,0,0,0,0,0,0,-4.2954,-4.2957,-4.2966,-4.2951,-4.2949,-4.2887,-4.29,-4.2886,-4.2889,-4.2834,-4.2821,-4.2841,-4.2786,-4.2786,-4.2843,-4.2908,-4.2768,-4.277,-4.2994,-4.3001,-4.3008,-4.3155,0,0,0,0,0,0,-4.2953,-4.2957,-4.2996,-4.2952,-4.2951,-4.3019,-4.2904,-4.2889,-4.2893,-4.288,-4.2845,-4.2835,-4.2782,-4.284,-4.2845,-4.2909,-4.2772,-4.2988,-4.2997,-4.3006,-4.3144,-4.3166,-4.3185,0,0,0,0,0,-4.2953,-4.3039,-4.2998,-4.3001,-4.2997,-4.3023,-4.3022,-4.2959,-4.2899,-4.2938,-4.2903,-4.2836,-4.29,-4.2847,-4.2852,-4.2917,-4.2983,-4.2994,-4.3005,-4.3135,-4.3162,-4.3185,0,0,0,0,0,0,-4.3092,-4.3032,-4.2986,-4.306,-4.3048,-4.3,-4.3047,-4.299,-4.2994,-4.2982,-4.2905,-4.2898,-4.2966,-4.2947,-4.2889,-4.3018,-4.2931,-4.2943,-4.3028,-4.3053,-4.3073,-4.3077,-4.2774,0,0,0,0,0,-4.3131,-4.3156,-4.3103,-4.3174,-4.317,-4.311,-4.3119,-4.3072,-4.3056,-4.305,-4.3019,-4.3007,-4.3024,-4.3037,-4.305,-4.3141,-4.3132,-4.3188,-4.3209,-4.3226,-4.3238,-4.3286,-4.3311,-4.3046,-4.3046,-4.3046,0,0,-4.3212,-4.3183,-4.3203,-4.3201,-4.3185,-4.3215,-4.3106,-4.3141,-4.3162,-4.3055,-4.3107,-4.3084,-4.3066,-4.3141,-4.3172,-4.3127,-4.331,-4.324,-4.3254,-4.3257,-4.33,-4.3325,-4.3348,-4.3053,-4.3052,-4.3051,0,0,-4.3376,-4.3355,-4.3413,-4.34,-4.3378,-4.3338,-4.3352,-4.3314,-4.3294,-4.3345,-4.3266,-4.3291,-4.3322,-4.3313,-4.3313,-4.3476,-4.3415,-4.3482,-4.359,-4.3638,-4.3659,-4.3678,-4.3737,-4.3759,-4.3494,-4.3494,-4.3494,0,-4.348,-4.3519,-4.345,-4.3491,-4.3493,-4.3397,-4.3456,-4.3447,-4.3432,-4.3436,-4.3386,-4.3424,-4.3405,-4.3477,-4.3517,-4.3519,-4.3535,-4.3486,-4.3662,-4.3679,-4.3695,-4.3751,-4.3774,-4.3503,-4.3502,-4.3501,-4.35,0,-4.3649,-4.3678,-4.3728,-4.3715,-4.3722,-4.3772,-4.3712,-4.3729,-4.3682,-4.3648,-4.3702,-4.3676,-4.3683,-4.3697,-4.3651,-4.3763,-4.3736,-4.3675,-4.3586,-4.373,-4.3782,-4.3802,-4.3515,-4.3512,-4.3509,-4.3507,0,0,-4.3898,-4.3847,-4.3866,-4.386,-4.383,-4.3852,-4.3899,-4.3905,-4.3921,-4.3914,-4.3952,-4.3982,-4.3926,-4.3926,-4.3879,-4.3921,-4.4054,-4.3854,-4.3853,-4.3894,-4.4178,-4.4225,-4.4251,-4.4013,-4.4017,-4.402,-4.418,0,-4.4053,-4.4129,-4.4069,-4.4156,-4.4183,-4.4094,-4.4135,-4.4122,-4.4092,-4.4112,-4.4079,-4.4102,-4.4025,-4.4025,-4.4062,-4.403,-4.411,-4.4017,-4.405,-4.4052,-4.4058,-4.4277,-4.4326,-4.4479,-4.42,-4.4203,-4.4205,0,-4.4244,-4.4246,-4.4336,-4.4302,-4.4311,-4.4349,-4.4351,-4.4371,-4.4355,-4.4331,-4.4332,-4.4274,-4.4319,-4.4232,-4.4294,-4.4232,-4.4242,-4.4229,-4.4233,-4.4234,-4.4138,-4.4286,-4.4525,-4.4549,-4.4236,-4.4234,-4.4231,0,-4.4419,-4.4443,-4.4501,-4.4498,-4.4459,-4.4489,-4.4474,-4.4454,-4.4462,-4.4465,-4.447,-4.4478,-4.4483,-4.4491,-4.4438,-4.4379,-4.4508,-4.4416,-4.449,-4.4492,-4.4522,-4.4521,-4.4768,-4.4527,-4.4527,-4.4527,-4.4526,0,-4.4599,-4.4658,-4.4578,-4.4614,-4.4678,-4.461,-4.4676,-4.4652,-4.4635,-4.4666,-4.4589,-4.462,-4.4547,-4.4571,-4.453,-4.4589,-4.4591,-4.4574,-4.4563,-4.4581,-4.4584,-4.4587,-4.4576,-4.4533,-4.4531,-4.453,-4.4529,0,-4.4804,-4.4753,-4.481,-4.4769,-4.4761,-4.481,-4.4776,-4.4808,-4.4773,-4.4813,-4.4819,-4.4766,-4.479,-4.4737,-4.4754,-4.4727,-4.4811,-4.4782,-4.4816,-4.4808,-4.4886,-4.488,-4.5144,-4.5176,-4.4915,-4.4918,-4.492,0,-4.4922,-4.4966,-4.493,-4.4945,-4.4935,-4.496,-4.4968,-4.4903,-4.4916,-4.4903,-4.4937,-4.4955,-4.4965,-4.5009,-4.4972,-4.4986,-4.4957,-4.5049,-4.4959,-4.4977,-4.496,-4.4959,-4.4963,-4.5068,-4.5071,-4.5074,-4.5076,0,-4.5139,-4.5112,-4.5127,-4.5134,-4.5146,-4.5149,-4.5146,-4.5163,-4.5094,-4.5112,-4.5136,-4.5144,-4.5162,-4.5181,-4.5186,-4.5173,-4.5114,-4.5105,-4.5123,-4.5143,-4.5161,-4.5154,-4.4868,-4.5099,-4.5096,-4.5095,-4.5094,-4.5093,-4.5305,-4.534,-4.5321,-4.5341,-4.5332,-4.5332,-4.5361,-4.533,-4.5349,-4.5358,-4.5319,-4.5352,-4.5338,-4.5338,-4.5331,-4.5357,-4.5316,-4.5342,-4.5349,-4.5356,-4.537,-4.5157,-4.5358,-4.5357,-4.5356,-4.5356,-4.5355,0,-4.5519,-4.5503,-4.5521,-4.552,-4.5536,-4.5479,-4.5474,-4.5491,-4.5521,-4.5512,-4.5525,-4.5554,-4.5573,-4.5539,-4.5552,-4.558,-4.5554,-4.5586,-4.5584,-4.5582,-4.5405,-4.5389,-4.5607,-4.5607,-4.5607,-4.5607,-4.5607,-4.5607,-4.5632,-4.5689,-4.566,-4.5713,-4.5697,-4.5728,-4.573,-4.573,-4.5723,-4.5758,-4.5774,-4.5751,-4.5733,-4.5745,-4.5761,-4.5751,-4.576,-4.5802,-4.5783,-4.5619,-4.5594,-4.5571,-4.5555,-4.5805,-4.5805,-4.5957,-4.5959,-4.596]},{"header":{"parameterUnit":"m.s-1","parameterCategory":1,"la1":30.2991,"la2":30.254,"lo1":-89.0895,"lo2":-89.0444,"dy":0.0017,"dx":0.0017,"nx":28,"ny":28,"refTime":"2024-12-15T09:00:00:Z","depth":0,"parameterNumber":3,"parameterNumberName":"V-component_of_WINDS"},"data":[0,0,0,0,0,0,0,0,0,0,0,0,0,0,0,0,0,0,0,0,0,0,0,0,0,0,0,0,0,0,0,0,0,0,0,0,0,0,0,0,0,0,0,0,0,0,0,0,0,0,0,0,0,0,0,0,0,0,-0.2736,-0.2736,0,-0.2774,-0.2774,-0.2774,-0.2767,-0.2766,-0.2766,-0.2765,-0.2804,-0.2806,-0.2808,0,0,0,0,0,0,0,0,0,0,0,0,0,-0.2656,-0.2657,-0.2736,-0.2736,-0.2737,-0.2774,-0.2774,-0.2775,-0.2767,-0.2766,-0.2765,-0.2765,-0.2804,-0.2806,-0.2808,0,0,0,0,0,0,0,0,0,0,0,0,0,-0.2692,-0.2658,-0.2735,-0.2737,-0.2738,-0.2773,-0.2774,-0.2775,-0.2767,-0.2766,-0.2765,-0.2764,-0.2803,-0.2806,-0.2808,-0.2845,0,0,-0.2816,-0.2817,0,0,0,0,0,0,0,0,-0.269,-0.2695,-0.2737,-0.2737,-0.2738,-0.2764,-0.276,-0.2798,-0.2768,-0.2756,-0.2765,-0.2764,-0.2792,-0.2795,-0.2805,-0.2846,-0.2848,-0.2816,-0.2818,-0.2819,-0.282,0,0,0,0,0,0,0,-0.2687,-0.2693,-0.2751,-0.2737,-0.2738,-0.2736,-0.274,-0.2768,-0.2779,-0.2757,-0.2757,-0.2761,-0.2792,-0.2802,-0.2806,-0.2849,-0.2816,-0.2818,-0.282,-0.2821,-0.292,-0.2922,0,0,0,0,0,0,-0.2684,-0.2691,-0.2749,-0.2752,-0.2711,-0.2738,-0.2743,-0.2757,-0.2779,-0.2782,-0.2762,-0.2761,-0.2799,-0.2803,-0.2807,-0.285,-0.2819,-0.2821,-0.2823,-0.2919,-0.2921,-0.2922,0,0,0,0,0,0,-0.2683,-0.2689,-0.2748,-0.2721,-0.2729,-0.2741,-0.2757,-0.2758,-0.2769,-0.2783,-0.2785,-0.277,-0.2798,-0.2804,-0.2835,-0.2851,-0.2822,-0.2825,-0.2918,-0.292,-0.2921,-0.2937,0,0,0,0,0,0,-0.268,-0.2689,-0.2703,-0.2722,-0.273,-0.2775,-0.2758,-0.276,-0.2773,-0.2771,-0.2791,-0.2793,-0.2798,-0.2831,-0.2837,-0.2854,-0.2827,-0.2917,-0.2919,-0.2921,-0.2935,-0.2939,-0.2943,0,0,0,0,0,-0.2677,-0.2707,-0.2704,-0.2711,-0.2748,-0.2776,-0.2781,-0.2785,-0.2774,-0.2788,-0.2797,-0.2793,-0.2849,-0.2834,-0.2841,-0.2859,-0.2916,-0.2918,-0.2921,-0.2934,-0.2938,-0.2942,0,0,0,0,0,0,-0.269,-0.2709,-0.2706,-0.2743,-0.2758,-0.2775,-0.2793,-0.279,-0.2809,-0.2807,-0.2811,-0.2816,-0.2848,-0.2857,-0.2841,-0.2895,-0.288,-0.2885,-0.2888,-0.2893,-0.2896,-0.2893,-0.2829,0,0,0,0,0,-0.2697,-0.2719,-0.2734,-0.2764,-0.2772,-0.2781,-0.2794,-0.2795,-0.2811,-0.2818,-0.2829,-0.2845,-0.2866,-0.288,-0.29,-0.2936,-0.294,-0.2952,-0.2956,-0.2959,-0.2962,-0.2981,-0.2986,-0.293,-0.293,-0.293,0,0,-0.2712,-0.2725,-0.2739,-0.2767,-0.2779,-0.2801,-0.2787,-0.2811,-0.2827,-0.2822,-0.2852,-0.286,-0.2878,-0.2912,-0.2927,-0.2921,-0.2978,-0.2962,-0.2964,-0.2966,-0.2984,-0.2989,-0.2994,-0.2932,-0.2932,-0.2931,0,0,-0.275,-0.2762,-0.2788,-0.28,-0.2818,-0.2824,-0.283,-0.2848,-0.2853,-0.2883,-0.2879,-0.2898,-0.2935,-0.2947,-0.2958,-0.2999,-0.2995,-0.3005,-0.3025,-0.3043,-0.3047,-0.3051,-0.3064,-0.3069,-0.3009,-0.3009,-0.3009,0,-0.2766,-0.2799,-0.2802,-0.2826,-0.2838,-0.2834,-0.286,-0.2871,-0.2895,-0.2904,-0.2895,-0.294,-0.2952,-0.2987,-0.2997,-0.3007,-0.3013,-0.3003,-0.3046,-0.305,-0.3054,-0.3067,-0.3072,-0.301,-0.301,-0.301,-0.3009,0,-0.2817,-0.284,-0.2859,-0.2881,-0.2895,-0.292,-0.2927,-0.2941,-0.2941,-0.2947,-0.2977,-0.2991,-0.3013,-0.3021,-0.3022,-0.3057,-0.3052,-0.3045,-0.303,-0.306,-0.3072,-0.3077,-0.3011,-0.3011,-0.3011,-0.301,0,0,-0.2866,-0.2888,-0.2895,-0.2904,-0.2923,-0.2941,-0.2965,-0.2986,-0.2997,-0.3014,-0.3033,-0.3063,-0.3057,-0.3069,-0.3071,-0.3087,-0.3117,-0.3078,-0.3078,-0.3084,-0.3155,-0.316,-0.3166,-0.3114,-0.3115,-0.3116,-0.3153,0,-0.2905,-0.2947,-0.295,-0.2988,-0.3008,-0.3003,-0.3024,-0.3038,-0.3044,-0.3062,-0.3068,-0.3089,-0.3079,-0.3086,-0.3102,-0.311,-0.3131,-0.3107,-0.3132,-0.3133,-0.3128,-0.3172,-0.3178,-0.3212,-0.3158,-0.3159,-0.316,0,-0.2957,-0.2973,-0.3013,-0.3028,-0.3036,-0.3055,-0.3074,-0.3091,-0.3106,-0.3109,-0.3122,-0.3121,-0.3145,-0.313,-0.3162,-0.3146,-0.3156,-0.3162,-0.3163,-0.3165,-0.3148,-0.3175,-0.3223,-0.3228,-0.3167,-0.3167,-0.3166,0,-0.2986,-0.3019,-0.3047,-0.3055,-0.3073,-0.3086,-0.3094,-0.3108,-0.312,-0.3136,-0.3144,-0.3163,-0.3174,-0.3188,-0.3192,-0.3181,-0.3225,-0.321,-0.3228,-0.3227,-0.3237,-0.3236,-0.3287,-0.3244,-0.3244,-0.3244,-0.3244,0,-0.303,-0.3054,-0.306,-0.3077,-0.3104,-0.3106,-0.3133,-0.314,-0.3152,-0.317,-0.3167,-0.3184,-0.3189,-0.3206,-0.321,-0.3236,-0.3241,-0.3244,-0.3244,-0.3244,-0.3243,-0.325,-0.3248,-0.3246,-0.3245,-0.3245,-0.3245,0,-0.3068,-0.3073,-0.3103,-0.3117,-0.3121,-0.314,-0.3152,-0.3168,-0.3173,-0.3195,-0.3201,-0.3209,-0.323,-0.3235,-0.326,-0.3262,-0.3292,-0.3291,-0.3287,-0.3287,-0.3304,-0.3302,-0.3361,-0.3368,-0.3321,-0.3322,-0.3322,0,-0.3095,-0.3113,-0.3129,-0.314,-0.3149,-0.3168,-0.3179,-0.3182,-0.3195,-0.3212,-0.3226,-0.3246,-0.3262,-0.3294,-0.3303,-0.3321,-0.332,-0.3339,-0.3323,-0.3321,-0.3319,-0.3318,-0.3319,-0.3342,-0.3343,-0.3343,-0.3343,0,-0.3142,-0.3143,-0.316,-0.3178,-0.3192,-0.3206,-0.322,-0.3229,-0.3234,-0.3248,-0.3268,-0.3281,-0.3305,-0.3325,-0.3343,-0.3351,-0.3348,-0.3348,-0.3353,-0.3353,-0.3349,-0.335,-0.3295,-0.3347,-0.3347,-0.3346,-0.3346,-0.3346,-0.3175,-0.319,-0.3203,-0.3222,-0.3232,-0.3245,-0.326,-0.3266,-0.3283,-0.3303,-0.3304,-0.3326,-0.3339,-0.3363,-0.3372,-0.3389,-0.3383,-0.3391,-0.3392,-0.3394,-0.3395,-0.3347,-0.3392,-0.3392,-0.3392,-0.3392,-0.3392,0,-0.3221,-0.3229,-0.3246,-0.3264,-0.3279,-0.3274,-0.3288,-0.33,-0.332,-0.3332,-0.3347,-0.337,-0.3389,-0.3398,-0.3416,-0.3428,-0.3427,-0.3432,-0.3431,-0.3433,-0.34,-0.3393,-0.3433,-0.3433,-0.3433,-0.3433,-0.3433,-0.3433,-0.3247,-0.3272,-0.3275,-0.3305,-0.3313,-0.3334,-0.3342,-0.3353,-0.3363,-0.3388,-0.3403,-0.3409,-0.342,-0.3438,-0.3455,-0.3457,-0.3464,-0.347,-0.3471,-0.344,-0.3436,-0.3432,-0.3425,-0.3472,-0.3472,-0.3503,-0.3504,-0.3504]}]]